Simultaneous Nadir Overpasses (SNOs) Predictions

Prediction of SNOs between METOP-B and TERRA Satellite Orbit:

Table of predicted SNOs for the next 14.0 days since TLE Epoch: 6/22/2024
Index Date (METOP-B) Time (METOP-B) Lat,Lon (METOP-B) SZA (METOP-B ) Date (TERRA) Time (TERRA) Lat,Lon (TERRA) SZA (TERRA ) Distance(km) Time Diff (sec)
1 06/23/2024 22:46:32 80.14,-140.94 57.34 06/23/2024 22:46:37 80.14,-141.02 57.33 1.53 5
2 06/23/2024 23:37:08 -80.29, 28.03 122.42 06/23/2024 23:35:55 -80.28, 27.87 122.46 3.09 73
3 06/26/2024 13:16:59 80.11, 1.07 57.35 06/26/2024 13:17:16 80.09, 0.93 57.33 3.04 17
4 06/26/2024 14:07:37 -80.20, 169.44 122.50 06/26/2024 14:06:35 -80.21, 169.52 122.51 1.59 62
5 06/29/2024 03:47:26 80.06, 143.02 57.40 06/29/2024 03:47:54 80.07, 143.00 57.41 0.40 28
6 06/29/2024 04:38:02 -80.22, -47.98 122.35 06/29/2024 04:37:12 -80.21, -48.11 122.38 2.64 50
7 07/01/2024 18:17:53 80.02, -75.07 57.49 07/01/2024 18:18:32 80.02, -75.07 57.50 0.09 39
8 07/01/2024 19:08:28 -80.21, 94.23 122.21 07/01/2024 19:07:49 -80.20, 94.09 122.24 2.74 39
9 07/04/2024 08:48:18 80.02, 67.37 57.71 07/04/2024 08:49:08 80.02, 67.27 57.71 1.86 50



Historial Predications of SNOs between METOP-B and TERRA
